Home > Weather > Saipan > Past weeks

Flag for Northern Mariana Islands Past Weather in Saipan, Northern Mariana Islands — Yesterday and Last 2 Weeks

Now
78 °F

Passing clouds.


Feels Like: 81 °F
Forecast: 73 / 83 °F
Wind: No wind

Location: Saipan International Airport

Current Time: May 31, 2016 at 6:19:33 AM

Latest Report: May 31, 2016 at 5:54 AM


Visibility: 10 mi

Pressure: 29.98 "Hg

Humidity: 90%

Dew Point: 75 °F

Location of SaipanLocation

Past Weather in Saipan — Graph

°F

Saipan Temperature Yesterday

Maximum temperature yesterday: 88 °F (at 11:54 AM)
Minimum temperature yesterday: 80 °F (at 5:54 AM)
Average temperature yesterday: 83 °F

High & Low Weather Summary for the Past Weeks

 TemperatureHumidityPressure
High89 °F (May 27, 11:54 AM)94% (May 16, 4:54 AM)30.05 "Hg (May 16, 4:54 AM)
Low76 °F (May 19, 5:54 AM)59% (May 19, 3:54 PM)29.86 "Hg (May 18, 3:54 AM)
Average83 °F77%29.97 "Hg
* Reported May 16 4:54 AM — May 31 4:54 AM, Saipan, Weather by CustomWeather, © 2016

Note: Actual official high and low records may vary slightly from our data, if they occured in-between our weather recording intervals... More about our weather records

Advertising

Saipan Weather History for the Previous 24 Hours

Scroll right to see more
 ConditionsComfort  
Time TempWeatherWind HumidityBarometerVisibility
4:54 AM
Tue, May 31
79 °FOvercast.No wind88%29.97 "Hg10 mi
3:54 AM79 °FOvercast.No wind88%29.96 "Hg10 mi
2:54 AM79 °FOvercast.3 mph88%29.97 "Hg10 mi
1:54 AM80 °FPassing clouds.No wind85%29.98 "Hg10 mi
12:54 AM80 °FOvercast.No wind87%29.99 "Hg10 mi
11:54 PM
Mon, May 30
80 °FOvercast.No wind85%30.01 "Hg10 mi
10:54 PM81 °FOvercast.3 mph79%30.02 "Hg10 mi
9:54 PM81 °FOvercast.3 mph79%30.02 "Hg10 mi
8:54 PM81 °FOvercast.3 mph82%30.01 "Hg10 mi
7:54 PM81 °FPassing clouds.3 mph82%29.99 "Hg10 mi
6:54 PM83 °FOvercast.5 mph77%29.98 "Hg10 mi
5:54 PM85 °FMostly cloudy.8 mph72%29.96 "Hg10 mi
4:54 PM86 °FOvercast.10 mph67%29.94 "Hg10 mi
3:54 PM86 °FScattered clouds.10 mph70%29.94 "Hg10 mi
2:54 PM87 °FPassing clouds.10 mph67%29.95 "Hg10 mi
1:54 PM88 °FPassing clouds.9 mph63%29.96 "Hg10 mi
12:54 PM88 °FSunny.9 mph65%29.98 "Hg10 mi
11:54 AM88 °FScattered clouds.9 mph65%29.99 "Hg10 mi
10:54 AM86 °FScattered clouds.8 mph70%30.00 "Hg10 mi
9:54 AM86 °FScattered clouds.10 mph67%30.01 "Hg10 mi
8:54 AM84 °FScattered clouds.8 mph74%30.01 "Hg10 mi
7:54 AM84 °FPassing clouds.7 mph72%30.01 "Hg10 mi
6:54 AM83 °FPassing clouds.7 mph77%30.00 "Hg10 mi
Weather by CustomWeather, © 2016

See weather overviewHow to use our weather pages